[[{"header":{"parameterUnit":"m.s-1","parameterCategory":2,"la1":30.2991,"la2":30.254,"lo1":-89.0895,"lo2":-89.0444,"dy":0.0017,"dx":0.0017,"nx":28,"ny":28,"refTime":"2026-02-01T03:00:00:Z","depth":"0","parameterNumber":2,"parameterNumberName":"U-component_of_CURRENTS"},"data":[0,0,0,0,0,0,0,0,0,0,0,0,0,0,0,0,0,0,0,0,0,0,0,0,0,0,0,0,0,0,0,0,0,0,0,0,0,0,0,0,0,0,0,0,0,0,0,0,0,0,0,0,0,0,0,0,0,0,0.1716,0.1717,0,0.1831,0.1832,0.1834,0.186,0.1859,0.1859,0.1858,0.1914,0.1916,0.1918,0,0,0,0,0,0,0,0,0,0,0,0,0,0.1581,0.1583,0.1716,0.1717,0.1719,0.1831,0.1833,0.1834,0.186,0.1859,0.1858,0.1858,0.1913,0.1916,0.1918,0,0,0,0,0,0,0,0,0,0,0,0,0,0.1662,0.1584,0.1715,0.1746,0.175,0.1831,0.1833,0.1834,0.186,0.1859,0.1858,0.1857,0.1912,0.1916,0.1919,0.1962,0,0,0.1929,0.193,0,0,0,0,0,0,0,0,0.1657,0.1667,0.174,0.1744,0.1748,0.1831,0.1806,0.1874,0.1861,0.1818,0.1858,0.1857,0.1882,0.1888,0.1912,0.1965,0.1967,0.1929,0.1931,0.1933,0.1934,0,0,0,0,0,0,0,0.1651,0.1662,0.1761,0.1741,0.1747,0.1775,0.1785,0.1819,0.1853,0.1822,0.1824,0.1838,0.1883,0.1909,0.1913,0.1968,0.1929,0.1932,0.1934,0.1935,0.2107,0.211,0,0,0,0,0,0,0.1637,0.1657,0.1757,0.1764,0.17,0.1778,0.1789,0.1805,0.1854,0.1861,0.1839,0.1839,0.1904,0.1909,0.1915,0.2028,0.1933,0.1936,0.1938,0.2105,0.2108,0.2111,0,0,0,0,0,0,0.1633,0.1645,0.1753,0.1713,0.1729,0.1781,0.1799,0.1808,0.1836,0.1868,0.1874,0.1858,0.1903,0.1911,0.1964,0.2027,0.1937,0.194,0.2102,0.2106,0.2109,0.2215,0,0,0,0,0,0,0.1629,0.1643,0.1652,0.1712,0.1731,0.1813,0.1801,0.1811,0.1847,0.1848,0.1887,0.1891,0.1903,0.1959,0.1967,0.203,0.1943,0.2098,0.2103,0.2108,0.2208,0.2222,0.2234,0,0,0,0,0,0.1624,0.1654,0.1652,0.1665,0.1741,0.1815,0.1828,0.186,0.1849,0.1878,0.1903,0.189,0.1995,0.1964,0.1973,0.2039,0.2096,0.2102,0.2108,0.2203,0.222,0.2234,0,0,0,0,0,0,0.1604,0.1662,0.166,0.1705,0.1756,0.182,0.1855,0.1866,0.191,0.1909,0.1921,0.1929,0.2004,0.2002,0.1966,0.2102,0.2045,0.2053,0.2114,0.213,0.2143,0.2141,0.1946,0,0,0,0,0,0.1601,0.1639,0.1691,0.1729,0.1755,0.18,0.1833,0.1855,0.1901,0.1919,0.1942,0.1977,0.2037,0.2064,0.2104,0.2174,0.2183,0.2222,0.2235,0.2246,0.2251,0.2302,0.232,0.213,0.213,0.213,0,0,0.1605,0.1641,0.1662,0.1728,0.1769,0.1828,0.1818,0.1879,0.1932,0.1918,0.1991,0.202,0.2064,0.2152,0.2185,0.2157,0.2315,0.2254,0.2263,0.2262,0.231,0.2329,0.2345,0.2134,0.2133,0.2132,0,0,0.1642,0.1663,0.1709,0.1754,0.1818,0.1855,0.187,0.1933,0.1966,0.2035,0.2053,0.2119,0.2182,0.2247,0.2284,0.2389,0.2378,0.2399,0.2469,0.2519,0.2535,0.2549,0.2623,0.2643,0.2407,0.2408,0.2408,0,0.1642,0.1699,0.1735,0.1791,0.1832,0.1867,0.1924,0.1979,0.2049,0.2085,0.2066,0.22,0.2238,0.2369,0.2416,0.2422,0.2443,0.2408,0.2536,0.2549,0.2561,0.2634,0.2654,0.2414,0.2413,0.2412,0.2412,0,0.171,0.1757,0.1794,0.1871,0.1923,0.1982,0.2051,0.2101,0.2129,0.2176,0.2284,0.2342,0.2416,0.2458,0.2476,0.2602,0.2589,0.2544,0.2494,0.2587,0.2658,0.2677,0.2422,0.242,0.2418,0.2417,0,0,0.1715,0.1817,0.183,0.1867,0.1964,0.2012,0.211,0.2205,0.2263,0.2334,0.2418,0.2547,0.2556,0.26,0.2637,0.2698,0.2832,0.2664,0.2664,0.2735,0.2963,0.2996,0.3019,0.2797,0.28,0.2802,0.2991,0,0.1756,0.1849,0.1899,0.1995,0.2051,0.2111,0.2193,0.2281,0.2351,0.244,0.2527,0.2619,0.262,0.2664,0.2731,0.2802,0.288,0.2786,0.2864,0.2867,0.2882,0.3042,0.2974,0.3139,0.301,0.3013,0.3015,0,0.181,0.1863,0.1949,0.2045,0.2073,0.2129,0.2245,0.2324,0.2462,0.2518,0.2621,0.2678,0.2827,0.2779,0.2956,0.289,0.2941,0.2984,0.2991,0.2992,0.2936,0.3018,0.3178,0.306,0.3044,0.3041,0.3039,0,0.1794,0.1903,0.1962,0.1998,0.2112,0.2152,0.2209,0.2337,0.2409,0.2566,0.2642,0.2783,0.2873,0.2951,0.3073,0.301,0.3247,0.316,0.3247,0.325,0.3195,0.3188,0.3243,0.3275,0.3275,0.3274,0.3274,0,0.1827,0.1879,0.1948,0.1982,0.204,0.2127,0.2203,0.2291,0.2422,0.2539,0.2667,0.2794,0.2914,0.3065,0.3124,0.3286,0.3295,0.3309,0.3316,0.3236,0.323,0.3122,0.3067,0.3281,0.328,0.3278,0.3277,0,0.1825,0.1871,0.1933,0.2017,0.2035,0.2071,0.2165,0.2241,0.2375,0.2536,0.2596,0.2823,0.3049,0.3195,0.3364,0.3376,0.343,0.3545,0.3469,0.3464,0.3388,0.3343,0.3344,0.3243,0.3661,0.3663,0.3665,0,0.1852,0.1879,0.1924,0.1943,0.1976,0.2028,0.208,0.2195,0.23,0.2566,0.2666,0.2928,0.3148,0.3443,0.3547,0.3713,0.3555,0.3686,0.355,0.343,0.3384,0.3232,0.3132,0.3537,0.3537,0.3538,0.3538,0,0.1889,0.1879,0.1908,0.1941,0.1975,0.2015,0.2106,0.2165,0.2356,0.2515,0.2769,0.2955,0.3301,0.3468,0.3694,0.3759,0.3521,0.37,0.3584,0.3328,0.3157,0.3046,0.3378,0.3543,0.3542,0.3542,0.3542,0.3542,0.1903,0.1906,0.1928,0.1961,0.1989,0.2037,0.2068,0.2197,0.2341,0.2591,0.2779,0.3034,0.3299,0.3631,0.3675,0.3664,0.3605,0.3545,0.352,0.339,0.323,0.3602,0.3756,0.3756,0.3757,0.3758,0.3758,0,0.1944,0.1942,0.1967,0.1992,0.202,0.2036,0.2129,0.2175,0.233,0.2556,0.2773,0.3052,0.3266,0.3426,0.3549,0.3467,0.3289,0.3375,0.3111,0.3031,0.3387,0.3314,0.3366,0.3366,0.3367,0.3367,0.3367,0.3367,0.1973,0.1987,0.1993,0.2035,0.2049,0.2079,0.2116,0.218,0.231,0.2491,0.2637,0.2823,0.3118,0.3372,0.3348,0.3279,0.2986,0.2947,0.2864,0.3081,0.309,0.31,0.3015,0.3004,0.3004,0.238,0.2376,0.2372]},{"header":{"parameterUnit":"m.s-1","parameterCategory":2,"la1":30.2991,"la2":30.254,"lo1":-89.0895,"lo2":-89.0444,"dy":0.0017,"dx":0.0017,"nx":28,"ny":28,"refTime":"2026-02-01T03:00:00:Z","depth":"0","parameterNumber":3,"parameterNumberName":"V-component_of_CURRENTS"},"data":[0,0,0,0,0,0,0,0,0,0,0,0,0,0,0,0,0,0,0,0,0,0,0,0,0,0,0,0,0,0,0,0,0,0,0,0,0,0,0,0,0,0,0,0,0,0,0,0,0,0,0,0,0,0,0,0,0,0,-0.0286,-0.0287,0,-0.0378,-0.0379,-0.038,-0.0427,-0.0427,-0.0427,-0.0427,-0.0562,-0.0565,-0.0569,0,0,0,0,0,0,0,0,0,0,0,0,0,-0.0211,-0.0211,-0.0286,-0.0287,-0.0288,-0.0378,-0.0379,-0.038,-0.0427,-0.0427,-0.0427,-0.0427,-0.056,-0.0565,-0.0569,0,0,0,0,0,0,0,0,0,0,0,0,0,-0.0268,-0.0212,-0.0286,-0.0321,-0.0325,-0.0377,-0.0379,-0.0381,-0.0427,-0.0427,-0.0427,-0.0426,-0.0559,-0.0564,-0.057,-0.0607,0,0,-0.0587,-0.0589,0,0,0,0,0,0,0,0,-0.0265,-0.0271,-0.0315,-0.0319,-0.0323,-0.0389,-0.0402,-0.0458,-0.0427,-0.039,-0.0427,-0.0426,-0.0507,-0.0517,-0.0536,-0.0613,-0.0619,-0.0587,-0.059,-0.0593,-0.0594,0,0,0,0,0,0,0,-0.0261,-0.0268,-0.0324,-0.0316,-0.0321,-0.0352,-0.036,-0.0413,-0.045,-0.0393,-0.0396,-0.0404,-0.051,-0.053,-0.054,-0.0621,-0.0587,-0.0592,-0.0595,-0.0597,-0.0749,-0.075,0,0,0,0,0,0,-0.0244,-0.0264,-0.0321,-0.0327,-0.0291,-0.0353,-0.0362,-0.037,-0.0449,-0.046,-0.0404,-0.0406,-0.0521,-0.0533,-0.0545,-0.0597,-0.0593,-0.0598,-0.0601,-0.0749,-0.0749,-0.075,0,0,0,0,0,0,-0.0242,-0.0248,-0.0317,-0.0296,-0.0307,-0.0354,-0.0363,-0.0371,-0.0391,-0.0456,-0.0469,-0.0414,-0.0521,-0.0537,-0.0595,-0.0603,-0.06,-0.0605,-0.0748,-0.0749,-0.075,-0.0701,0,0,0,0,0,0,-0.0239,-0.0246,-0.0248,-0.0295,-0.0307,-0.0344,-0.0363,-0.0373,-0.0395,-0.0399,-0.0469,-0.0482,-0.0523,-0.0587,-0.0601,-0.061,-0.061,-0.0747,-0.0748,-0.0749,-0.0701,-0.07,-0.0699,0,0,0,0,0,-0.0236,-0.0239,-0.0248,-0.0255,-0.0307,-0.0344,-0.0354,-0.0388,-0.0396,-0.0405,-0.0455,-0.0479,-0.0605,-0.0592,-0.0608,-0.0619,-0.0746,-0.0748,-0.0749,-0.0702,-0.07,-0.0699,0,0,0,0,0,0,-0.0205,-0.0245,-0.0256,-0.027,-0.0301,-0.0351,-0.0365,-0.0384,-0.0431,-0.0436,-0.0493,-0.051,-0.0567,-0.0601,-0.0584,-0.0668,-0.0678,-0.0683,-0.0636,-0.0635,-0.0634,-0.0573,-0.0614,0,0,0,0,0,-0.0197,-0.0213,-0.0252,-0.0263,-0.0276,-0.0318,-0.0337,-0.0359,-0.0404,-0.0424,-0.0472,-0.0528,-0.0588,-0.0615,-0.0672,-0.0716,-0.0707,-0.0733,-0.0732,-0.073,-0.0693,-0.0694,-0.0688,-0.0756,-0.0756,-0.0756,0,0,-0.019,-0.0212,-0.0222,-0.0257,-0.0285,-0.0299,-0.033,-0.0356,-0.0367,-0.0433,-0.0469,-0.0531,-0.0601,-0.0654,-0.0681,-0.068,-0.071,-0.0733,-0.0731,-0.0693,-0.0695,-0.0688,-0.0681,-0.0757,-0.0756,-0.0756,0,0,-0.0178,-0.0199,-0.0206,-0.0226,-0.026,-0.0287,-0.029,-0.0337,-0.0359,-0.0404,-0.0457,-0.0509,-0.0599,-0.0641,-0.0677,-0.07,-0.0708,-0.0732,-0.067,-0.0672,-0.0665,-0.0659,-0.064,-0.0632,-0.0724,-0.0724,-0.0724,0,-0.0165,-0.0172,-0.0213,-0.0219,-0.0224,-0.0275,-0.0271,-0.0308,-0.0367,-0.0372,-0.0408,-0.0512,-0.0585,-0.0626,-0.0644,-0.0693,-0.0686,-0.067,-0.0666,-0.066,-0.0654,-0.0636,-0.0628,-0.0722,-0.0722,-0.0722,-0.0722,0,-0.0155,-0.0157,-0.0161,-0.0181,-0.0196,-0.0204,-0.0246,-0.0264,-0.0297,-0.0326,-0.0371,-0.0464,-0.0511,-0.0562,-0.0617,-0.0622,-0.0628,-0.0668,-0.0658,-0.0643,-0.0627,-0.0619,-0.0718,-0.0719,-0.072,-0.072,0,0,-0.0133,-0.0148,-0.0149,-0.0132,-0.0169,-0.0174,-0.0192,-0.0207,-0.0187,-0.0266,-0.0239,-0.0373,-0.0403,-0.0444,-0.0519,-0.053,-0.0515,-0.0576,-0.0577,-0.0534,-0.0495,-0.0486,-0.0478,-0.0553,-0.0552,-0.0551,-0.0498,0,-0.0107,-0.0087,-0.011,-0.0085,-0.0072,-0.0105,-0.011,-0.0131,-0.0152,-0.0144,-0.0226,-0.0251,-0.0366,-0.0382,-0.0417,-0.0484,-0.0492,-0.0523,-0.0533,-0.0532,-0.0509,-0.0468,-0.0491,-0.0444,-0.0491,-0.049,-0.0489,0,-0.0088,-0.007,-0.0037,-0.0007,-0.0004,-0.0002,0.0026,0.0018,0.0006,-0.0004,-0.0032,-0.0091,-0.0135,-0.023,-0.0307,-0.0319,-0.0396,-0.0448,-0.0449,-0.0441,-0.051,-0.047,-0.0429,-0.0658,-0.0478,-0.0478,-0.0479,0,-0.0038,-0.0015,0.0024,0.0029,0.0041,0.0059,0.0066,0.0064,0.0105,0.0104,0.0163,0.0066,0.0065,-0.0048,-0.0182,-0.024,-0.0233,-0.0332,-0.0389,-0.0389,-0.0406,-0.0409,-0.0563,-0.0365,-0.0365,-0.0366,-0.0366,0,0.0001,0.0037,0.0054,0.0076,0.0141,0.0124,0.0195,0.0197,0.0247,0.0355,0.0248,0.0327,0.0114,0.0078,-0.0087,-0.0184,-0.0163,-0.034,-0.0365,-0.0392,-0.0395,-0.0594,-0.0702,-0.0364,-0.0364,-0.0364,-0.0365,0,0.0049,0.0051,0.0112,0.0147,0.0164,0.0212,0.0292,0.0364,0.0398,0.0555,0.0574,0.0544,0.0504,0.0316,0.0159,-0.0023,-0.0253,-0.0193,-0.0197,-0.0224,-0.0525,-0.0627,-0.0727,-0.0793,-0.0252,-0.0252,-0.0251,0,0.0087,0.0118,0.0176,0.0233,0.0254,0.0324,0.0388,0.0425,0.0543,0.0714,0.0827,0.0823,0.0869,0.0645,0.0308,0.0059,-0.0168,-0.0152,-0.0285,-0.0507,-0.0641,-0.073,-0.0785,-0.0294,-0.0293,-0.0293,-0.0293,0,0.0182,0.0188,0.0239,0.0351,0.0428,0.053,0.0647,0.0762,0.0876,0.1031,0.1243,0.1294,0.1079,0.0807,0.0431,0.021,-0.0305,-0.0156,-0.0395,-0.0669,-0.0765,-0.0851,-0.0355,-0.0292,-0.0292,-0.0292,-0.0292,-0.0292,0.027,0.0325,0.0397,0.0502,0.0605,0.0775,0.089,0.106,0.1276,0.155,0.1554,0.1664,0.1194,0.0674,0.038,-0.028,-0.0266,-0.0526,-0.0621,-0.0684,-0.0781,-0.0258,-0.0226,-0.0226,-0.0226,-0.0225,-0.0225,0,0.0398,0.0454,0.0565,0.0705,0.0851,0.0871,0.1102,0.1251,0.1542,0.1735,0.1907,0.1688,0.1173,0.0582,-0.0272,-0.0697,-0.087,-0.0947,-0.1124,-0.1151,-0.0702,-0.0743,-0.081,-0.081,-0.081,-0.081,-0.0809,-0.0809,0.0476,0.059,0.0635,0.0904,0.1015,0.1231,0.1371,0.1602,0.1768,0.1984,0.1991,0.196,0.143,0.0002,-0.0979,-0.1201,-0.151,-0.1563,-0.1674,-0.1451,-0.1422,-0.1395,-0.1463,-0.1681,-0.1682,-0.2109,-0.2114,-0.2118]}],[{"header":{"parameterUnit":"m.s-1","parameterCategory":2,"la1":30.2991,"la2":30.254,"lo1":-89.0895,"lo2":-89.0444,"dy":0.0017,"dx":0.0017,"nx":28,"ny":28,"refTime":"2026-02-01T03:00:00:Z","depth":"2","parameterNumber":2,"parameterNumberName":"U-component_of_CURRENTS"},"data":[0,0,0,0,0,0,0,0,0,0,0,0,0,0,0,0,0,0,0,0,0,0,0,0,0,0,0,0,0,0,0,0,0,0,0,0,0,0,0,0,0,0,0,0,0,0,0,0,0,0,0,0,0,0,0,0,0,0,0.1403,0.1404,0,0.1486,0.1487,0.1488,0.1523,0.1523,0.1523,0.1523,0.1564,0.1565,0.1566,0,0,0,0,0,0,0,0,0,0,0,0,0,0.1299,0.13,0.1403,0.1404,0.1405,0.1486,0.1487,0.1488,0.1523,0.1523,0.1523,0.1522,0.1563,0.1565,0.1566,0,0,0,0,0,0,0,0,0,0,0,0,0,0.1359,0.1301,0.1403,0.1432,0.1436,0.1486,0.1487,0.1488,0.1523,0.1523,0.1523,0.1522,0.1563,0.1565,0.1566,0.1583,0,0,0.1572,0.1573,0,0,0,0,0,0,0,0,0.1356,0.1363,0.1427,0.143,0.1434,0.1494,0.1465,0.1518,0.1523,0.149,0.1523,0.1522,0.1536,0.1541,0.1558,0.1585,0.1587,0.1572,0.1573,0.1574,0.1575,0,0,0,0,0,0,0,0.1352,0.136,0.1436,0.1428,0.1433,0.1449,0.1457,0.1476,0.1513,0.1493,0.1496,0.1505,0.1538,0.1556,0.1559,0.1588,0.1572,0.1574,0.1575,0.1576,0.1635,0.1635,0,0,0,0,0,0,0.134,0.1356,0.1434,0.1439,0.1393,0.1451,0.146,0.1475,0.1514,0.152,0.1505,0.1506,0.1553,0.1556,0.156,0.1619,0.1574,0.1576,0.1577,0.1634,0.1635,0.1635,0,0,0,0,0,0,0.1338,0.1347,0.143,0.1398,0.141,0.1453,0.147,0.1477,0.1507,0.1523,0.1528,0.1528,0.1553,0.1557,0.1594,0.1619,0.1577,0.1579,0.1634,0.1634,0.1635,0.1713,0,0,0,0,0,0,0.1335,0.1345,0.1353,0.1398,0.1412,0.1464,0.147,0.1479,0.1512,0.1515,0.1545,0.1548,0.1553,0.1592,0.1596,0.1621,0.158,0.1633,0.1634,0.1635,0.171,0.1716,0.1722,0,0,0,0,0,0.1331,0.1343,0.1353,0.1363,0.1421,0.1465,0.1474,0.1503,0.1513,0.1529,0.1556,0.1548,0.1599,0.1595,0.1599,0.1625,0.1633,0.1634,0.1635,0.1707,0.1715,0.1722,0,0,0,0,0,0,0.1301,0.1349,0.1361,0.1387,0.1424,0.1471,0.1491,0.1512,0.1548,0.1551,0.1568,0.1573,0.1594,0.1603,0.1597,0.1639,0.1609,0.1611,0.1662,0.1669,0.1675,0.1676,0.1582,0,0,0,0,0,0.1298,0.1322,0.1367,0.1389,0.1409,0.1453,0.1476,0.1496,0.1532,0.1549,0.1577,0.1595,0.1601,0.1632,0.1625,0.1679,0.171,0.1691,0.1697,0.1702,0.1703,0.1799,0.1815,0.1638,0.1638,0.1638,0,0,0.1292,0.1322,0.1336,0.1385,0.1419,0.1456,0.1467,0.1505,0.1537,0.1546,0.1603,0.1603,0.1608,0.1646,0.1659,0.1668,0.1768,0.1703,0.1708,0.1706,0.1802,0.182,0.1835,0.1639,0.1639,0.1639,0,0,0.1298,0.1324,0.1348,0.1381,0.1429,0.146,0.1473,0.153,0.1556,0.1609,0.1605,0.1642,0.1673,0.1696,0.1706,0.1747,0.1769,0.173,0.1803,0.1897,0.1913,0.1928,0.1997,0.2017,0.1768,0.1769,0.1769,0,0.1287,0.1329,0.1361,0.1395,0.1428,0.1465,0.1503,0.1535,0.1596,0.1629,0.163,0.1705,0.1701,0.1769,0.1767,0.1764,0.181,0.1783,0.191,0.1925,0.1939,0.2005,0.2027,0.1773,0.1772,0.1772,0.1771,0,0.1314,0.135,0.137,0.1429,0.1465,0.1503,0.1551,0.1595,0.1635,0.1673,0.1744,0.1774,0.1832,0.1827,0.1807,0.1897,0.1893,0.1884,0.1902,0.1962,0.2027,0.2048,0.1778,0.1777,0.1776,0.1775,0,0,0.1289,0.1372,0.1381,0.1423,0.1487,0.1528,0.1581,0.1652,0.1715,0.1773,0.1875,0.1886,0.1921,0.1932,0.194,0.2018,0.2139,0.1996,0.1999,0.2081,0.2342,0.2286,0.2303,0.2166,0.217,0.2173,0.2352,0,0.1305,0.1368,0.1411,0.1488,0.1531,0.1587,0.1646,0.1709,0.1773,0.1877,0.1932,0.2018,0.1959,0.2023,0.2081,0.2112,0.2196,0.209,0.2255,0.2259,0.2218,0.2326,0.2111,0.2248,0.2373,0.2376,0.2379,0,0.132,0.1366,0.1435,0.154,0.1568,0.1617,0.1737,0.1802,0.192,0.1978,0.208,0.2132,0.2241,0.2199,0.2332,0.2272,0.2303,0.2335,0.2344,0.2276,0.2242,0.2204,0.2282,0.2414,0.2411,0.2408,0.2406,0,0.1302,0.1389,0.145,0.1482,0.1598,0.1648,0.1719,0.1828,0.1909,0.2073,0.2173,0.2286,0.2392,0.2454,0.2496,0.2438,0.265,0.259,0.2578,0.2574,0.2413,0.2387,0.2706,0.2705,0.2705,0.2704,0.2704,0,0.1304,0.1364,0.1446,0.149,0.1582,0.1657,0.1773,0.1864,0.2006,0.2134,0.2239,0.237,0.2464,0.2586,0.2584,0.2657,0.2737,0.2612,0.2632,0.243,0.2406,0.2551,0.253,0.2711,0.271,0.2708,0.2707,0,0.1303,0.1343,0.1449,0.1561,0.1583,0.1668,0.1801,0.189,0.2032,0.2216,0.2294,0.2473,0.2623,0.271,0.2836,0.2789,0.2858,0.2863,0.2607,0.2592,0.2691,0.2672,0.287,0.2869,0.2869,0.2869,0.2869,0,0.1328,0.137,0.1499,0.1542,0.1598,0.1694,0.1757,0.1892,0.1992,0.2269,0.2367,0.2583,0.2693,0.2859,0.2839,0.2889,0.2915,0.2722,0.2554,0.2716,0.2716,0.2697,0.2679,0.2378,0.2374,0.2371,0.2368,0,0.1399,0.1447,0.1514,0.1593,0.166,0.1742,0.1844,0.1912,0.2107,0.2248,0.2448,0.2565,0.2717,0.2663,0.2737,0.2714,0.2687,0.2652,0.2954,0.2354,0.2263,0.2259,0.2256,0.2338,0.2341,0.2343,0.2345,0.2346,0.1469,0.1518,0.159,0.1657,0.1722,0.1795,0.1818,0.194,0.2078,0.223,0.2365,0.2434,0.2483,0.2444,0.2428,0.2413,0.2544,0.2428,0.2434,0.2445,0.2341,0.2254,0.2307,0.2309,0.2311,0.2314,0.2315,0,0.153,0.1566,0.164,0.1707,0.1734,0.1791,0.187,0.1833,0.1934,0.2089,0.2164,0.2022,0.2026,0.2098,0.2021,0.2043,0.1982,0.1982,0.1875,0.1907,0.1935,0.1799,0.1624,0.1622,0.162,0.1618,0,0,0.1554,0.1583,0.1597,0.1665,0.1714,0.1711,0.1722,0.1696,0.1735,0.1739,0.1763,0.184,0.1998,0.1749,0.1752,0.1683,0.177,0.1627,0.2181,0.2083,0.2108,0.2197,0.2026,0,0,0,0,0]},{"header":{"parameterUnit":"m.s-1","parameterCategory":2,"la1":30.2991,"la2":30.254,"lo1":-89.0895,"lo2":-89.0444,"dy":0.0017,"dx":0.0017,"nx":28,"ny":28,"refTime":"2026-02-01T03:00:00:Z","depth":"2","parameterNumber":3,"parameterNumberName":"V-component_of_CURRENTS"},"data":[0,0,0,0,0,0,0,0,0,0,0,0,0,0,0,0,0,0,0,0,0,0,0,0,0,0,0,0,0,0,0,0,0,0,0,0,0,0,0,0,0,0,0,0,0,0,0,0,0,0,0,0,0,0,0,0,0,0,-0.0195,-0.0196,0,-0.026,-0.0261,-0.0261,-0.0308,-0.0308,-0.0308,-0.0308,-0.0423,-0.0425,-0.0428,0,0,0,0,0,0,0,0,0,0,0,0,0,-0.0141,-0.0142,-0.0195,-0.0196,-0.0197,-0.026,-0.0261,-0.0262,-0.0308,-0.0308,-0.0308,-0.0309,-0.0422,-0.0425,-0.0428,0,0,0,0,0,0,0,0,0,0,0,0,0,-0.0183,-0.0142,-0.0195,-0.0226,-0.0229,-0.0259,-0.0261,-0.0262,-0.0308,-0.0308,-0.0308,-0.0309,-0.0421,-0.0425,-0.0429,-0.0449,0,0,-0.0442,-0.0444,0,0,0,0,0,0,0,0,-0.018,-0.0185,-0.0221,-0.0224,-0.0227,-0.0274,-0.0283,-0.0326,-0.0308,-0.028,-0.0308,-0.0309,-0.0376,-0.0384,-0.0398,-0.0454,-0.0459,-0.0442,-0.0445,-0.0447,-0.0448,0,0,0,0,0,0,0,-0.0177,-0.0183,-0.0223,-0.0221,-0.0225,-0.0246,-0.0252,-0.0292,-0.0328,-0.0282,-0.0285,-0.0289,-0.0379,-0.0393,-0.0401,-0.0461,-0.0442,-0.0446,-0.0449,-0.045,-0.0548,-0.0548,0,0,0,0,0,0,-0.0164,-0.018,-0.0221,-0.0225,-0.0202,-0.0247,-0.0254,-0.0261,-0.0327,-0.0336,-0.0289,-0.0291,-0.0386,-0.0396,-0.0405,-0.0427,-0.0447,-0.0451,-0.0453,-0.0548,-0.0548,-0.0548,0,0,0,0,0,0,-0.0163,-0.0167,-0.0218,-0.0202,-0.021,-0.0247,-0.0254,-0.0262,-0.028,-0.0331,-0.0342,-0.03,-0.0386,-0.0399,-0.0444,-0.0432,-0.0453,-0.0457,-0.0548,-0.0548,-0.0548,-0.0475,0,0,0,0,0,0,-0.0161,-0.0166,-0.0168,-0.0201,-0.021,-0.0229,-0.0254,-0.0263,-0.028,-0.0284,-0.0343,-0.0354,-0.0388,-0.0437,-0.0448,-0.0438,-0.046,-0.0548,-0.0548,-0.0548,-0.0477,-0.0473,-0.0468,0,0,0,0,0,-0.0159,-0.0154,-0.0167,-0.0172,-0.021,-0.0228,-0.0235,-0.0264,-0.028,-0.0282,-0.0329,-0.0352,-0.0445,-0.0441,-0.0453,-0.0445,-0.0548,-0.0548,-0.0548,-0.0479,-0.0473,-0.0469,0,0,0,0,0,0,-0.0128,-0.016,-0.0175,-0.0179,-0.0199,-0.0235,-0.024,-0.0262,-0.03,-0.0306,-0.0359,-0.0373,-0.0397,-0.044,-0.0434,-0.0474,-0.0498,-0.05,-0.0441,-0.0436,-0.0432,-0.0387,-0.0463,0,0,0,0,0,-0.0122,-0.0131,-0.016,-0.0164,-0.0172,-0.0208,-0.022,-0.0237,-0.0273,-0.0289,-0.0335,-0.0381,-0.0406,-0.0437,-0.0465,-0.0502,-0.052,-0.0504,-0.05,-0.0495,-0.0469,-0.0501,-0.0497,-0.0548,-0.0548,-0.0548,0,0,-0.0113,-0.0129,-0.0135,-0.0158,-0.0179,-0.0181,-0.0216,-0.0228,-0.0227,-0.0297,-0.0322,-0.036,-0.0409,-0.0434,-0.0451,-0.0473,-0.0491,-0.0496,-0.0491,-0.0466,-0.0501,-0.0496,-0.0491,-0.0548,-0.0548,-0.0548,0,0,-0.0087,-0.0111,-0.0106,-0.0119,-0.014,-0.0161,-0.0162,-0.02,-0.0214,-0.0248,-0.028,-0.0313,-0.0384,-0.0402,-0.0423,-0.0416,-0.0452,-0.0434,-0.0392,-0.0425,-0.042,-0.0416,-0.0428,-0.0425,-0.0449,-0.0449,-0.0449,0,-0.0072,-0.0071,-0.0106,-0.01,-0.0102,-0.0148,-0.0135,-0.0156,-0.0203,-0.0202,-0.0248,-0.0315,-0.036,-0.0367,-0.0364,-0.0401,-0.0423,-0.0407,-0.0417,-0.0413,-0.041,-0.0423,-0.0421,-0.0445,-0.0446,-0.0446,-0.0446,0,-0.0041,-0.0039,-0.0036,-0.0046,-0.0053,-0.005,-0.0077,-0.0089,-0.0126,-0.0144,-0.0165,-0.0238,-0.0276,-0.03,-0.0333,-0.0329,-0.035,-0.0392,-0.0423,-0.04,-0.0416,-0.0415,-0.044,-0.0441,-0.0442,-0.0443,0,0,-0.0005,-0.0012,-0.0011,0.0,-0.002,-0.0021,-0.0016,-0.0016,0.0001,-0.0067,-0.0055,-0.0117,-0.0155,-0.018,-0.0233,-0.027,-0.0274,-0.0321,-0.0325,-0.0317,-0.0331,-0.0365,-0.0368,-0.0325,-0.0325,-0.0325,-0.0348,0,0.0033,0.0064,0.0044,0.0072,0.009,0.0059,0.0071,0.0066,0.0044,0.0041,-0.0022,-0.004,-0.0112,-0.0137,-0.0178,-0.0236,-0.027,-0.0262,-0.0366,-0.0368,-0.039,-0.0368,-0.0366,-0.0388,-0.0348,-0.0347,-0.0347,0,0.0071,0.0091,0.0127,0.0147,0.0151,0.0154,0.0175,0.0179,0.0176,0.016,0.0128,0.0078,0.0039,-0.0046,-0.0137,-0.0132,-0.0214,-0.0277,-0.0281,-0.0331,-0.0401,-0.0408,-0.039,-0.0347,-0.0347,-0.0347,-0.0347,0,0.0119,0.0148,0.018,0.0184,0.0196,0.0209,0.021,0.0219,0.0259,0.0235,0.0272,0.0182,0.0164,0.0039,-0.0084,-0.0116,-0.0186,-0.0256,-0.036,-0.0363,-0.0388,-0.0394,-0.032,-0.032,-0.032,-0.032,-0.032,0,0.0168,0.0192,0.0204,0.0218,0.027,0.0258,0.0309,0.0305,0.0344,0.0434,0.0337,0.0378,0.0185,0.0123,-0.0033,-0.0174,-0.0151,-0.0328,-0.0369,-0.0364,-0.0367,-0.0357,-0.0361,-0.0321,-0.0321,-0.0321,-0.0321,0,0.0205,0.0211,0.0249,0.0274,0.0288,0.0319,0.038,0.044,0.0464,0.0581,0.0587,0.0543,0.0439,0.0257,0.0066,-0.0079,-0.0241,-0.0302,-0.027,-0.0308,-0.0411,-0.0411,-0.0427,-0.0429,-0.043,-0.0431,-0.0431,0,0.0224,0.025,0.0286,0.0333,0.0342,0.0395,0.0454,0.0482,0.0577,0.0699,0.0781,0.0713,0.0654,0.0359,0.0072,-0.0208,-0.0232,-0.036,-0.0433,-0.0382,-0.042,-0.0419,-0.0417,-0.0434,-0.0434,-0.0435,-0.0436,0,0.0275,0.0276,0.0315,0.0411,0.0472,0.056,0.0655,0.075,0.0843,0.0938,0.1036,0.0979,0.0694,0.0369,-0.0002,-0.0187,-0.0327,-0.0383,-0.0328,-0.0412,-0.0392,-0.0429,-0.0426,-0.0441,-0.044,-0.044,-0.044,-0.044,0.0313,0.0357,0.0421,0.0511,0.0604,0.0754,0.0847,0.0978,0.1123,0.1245,0.1158,0.1054,0.0713,0.0173,-0.0104,-0.0369,-0.0384,-0.0494,-0.049,-0.0487,-0.0488,-0.0472,-0.0535,-0.0535,-0.0535,-0.0535,-0.0535,0,0.0381,0.0447,0.0537,0.066,0.0791,0.0822,0.1018,0.1103,0.1288,0.1291,0.1255,0.0893,0.052,0.0196,-0.0221,-0.0497,-0.051,-0.0556,-0.052,-0.0514,-0.0509,-0.0511,-0.0564,-0.0564,-0.0564,-0.0565,0,0,0.0433,0.053,0.0578,0.081,0.0915,0.1124,0.1247,0.1347,0.1386,0.1324,0.122,0.0929,0.0568,0.0257,-0.0108,-0.0316,-0.0343,-0.0357,-0.0315,-0.0226,-0.0217,-0.0466,-0.0462,0,0,0,0,0]}],[{"header":{"parameterUnit":"m.s-1","parameterCategory":2,"la1":30.2991,"la2":30.254,"lo1":-89.0895,"lo2":-89.0444,"dy":0.0017,"dx":0.0017,"nx":28,"ny":28,"refTime":"2026-02-01T03:00:00:Z","depth":"4","parameterNumber":2,"parameterNumberName":"U-component_of_CURRENTS"},"data":[0,0,0,0,0,0,0,0,0,0,0,0,0,0,0,0,0,0,0,0,0,0,0,0,0,0,0,0,0,0,0,0,0,0,0,0,0,0,0,0,0,0,0,0,0,0,0,0,0,0,0,0,0,0,0,0,0,0,0.0772,0.0772,0,0.0779,0.0779,0.078,0.0828,0.0829,0.083,0.0831,0.0854,0.0854,0.0853,0,0,0,0,0,0,0,0,0,0,0,0,0,0.0755,0.0755,0.0772,0.0772,0.0772,0.0779,0.0779,0.078,0.0828,0.0829,0.083,0.0832,0.0854,0.0854,0.0853,0,0,0,0,0,0,0,0,0,0,0,0,0,0.0764,0.0755,0.0772,0.0796,0.0798,0.0779,0.0779,0.078,0.0828,0.0829,0.0831,0.0832,0.0854,0.0854,0.0853,0.0819,0,0,0.0852,0.0852,0,0,0,0,0,0,0,0,0.0763,0.0765,0.0792,0.0794,0.0796,0.0803,0.0782,0.0793,0.0827,0.0818,0.0831,0.0833,0.0836,0.0837,0.0837,0.082,0.0821,0.0852,0.0851,0.0851,0.0851,0,0,0,0,0,0,0,0.0763,0.0764,0.0777,0.0792,0.0794,0.079,0.0794,0.0784,0.082,0.0819,0.0822,0.082,0.0838,0.0838,0.0838,0.0822,0.0852,0.0851,0.0851,0.0851,0.0843,0.0844,0,0,0,0,0,0,0.0759,0.0764,0.0776,0.0777,0.0781,0.0789,0.0793,0.08,0.082,0.0824,0.0818,0.0822,0.0838,0.0839,0.0839,0.0867,0.0851,0.0851,0.085,0.0843,0.0843,0.0844,0,0,0,0,0,0,0.0759,0.076,0.0776,0.0768,0.077,0.0788,0.0796,0.08,0.0818,0.0819,0.0824,0.0835,0.0839,0.084,0.0843,0.0866,0.0851,0.085,0.0843,0.0843,0.0844,0.0881,0,0,0,0,0,0,0.0758,0.0761,0.0767,0.0769,0.077,0.0773,0.0794,0.0799,0.0812,0.0818,0.0834,0.0837,0.084,0.0844,0.0842,0.0865,0.085,0.0843,0.0843,0.0843,0.0879,0.0882,0.0884,0,0,0,0,0,0.0758,0.0747,0.0768,0.0769,0.0779,0.0773,0.0773,0.0792,0.0812,0.0816,0.0829,0.0837,0.0845,0.0843,0.0841,0.0865,0.0843,0.0843,0.0843,0.0878,0.0881,0.0884,0,0,0,0,0,0,0.073,0.0751,0.0774,0.0769,0.0779,0.0781,0.078,0.0796,0.0809,0.0823,0.0829,0.0832,0.0841,0.0841,0.0838,0.0862,0.0848,0.0848,0.0875,0.0878,0.0881,0.0881,0.0849,0,0,0,0,0,0.073,0.0739,0.0755,0.0752,0.0759,0.0776,0.0778,0.0797,0.0804,0.0813,0.0827,0.0838,0.0835,0.0849,0.0841,0.0853,0.0865,0.0868,0.0871,0.0873,0.0871,0.09,0.0905,0.0844,0.0844,0.0844,0,0,0.0714,0.0729,0.0732,0.0749,0.076,0.076,0.0782,0.0791,0.08,0.081,0.0831,0.0838,0.0834,0.0847,0.0854,0.0858,0.0901,0.0873,0.0876,0.0872,0.0901,0.0907,0.0912,0.0845,0.0845,0.0845,0,0,0.0688,0.0708,0.0715,0.0718,0.0742,0.0754,0.076,0.0782,0.0807,0.0817,0.083,0.0846,0.0852,0.086,0.0861,0.0868,0.0901,0.0884,0.0915,0.0943,0.0949,0.0953,0.0999,0.1008,0.0901,0.0902,0.0902,0,0.0672,0.0684,0.0711,0.0711,0.0716,0.0752,0.0757,0.0769,0.0793,0.082,0.0828,0.0853,0.085,0.0868,0.0882,0.0874,0.0912,0.0907,0.0948,0.0953,0.0958,0.1003,0.1012,0.0903,0.0903,0.0903,0.0903,0,0.0652,0.066,0.0655,0.0681,0.0692,0.0694,0.0724,0.0755,0.0793,0.0815,0.0852,0.0855,0.0885,0.0886,0.0888,0.0929,0.0953,0.0938,0.0945,0.0966,0.1013,0.1022,0.0906,0.0905,0.0905,0.0904,0,0,0.0619,0.0643,0.0643,0.0658,0.0682,0.0691,0.0718,0.0761,0.0797,0.0826,0.0874,0.0873,0.0914,0.0916,0.0935,0.0959,0.1026,0.0982,0.0982,0.1035,0.1126,0.1088,0.1094,0.104,0.1041,0.1042,0.1154,0,0.0602,0.0605,0.0628,0.0632,0.0636,0.0682,0.0709,0.0755,0.08,0.0852,0.088,0.0922,0.0916,0.0962,0.0981,0.0998,0.1049,0.0998,0.1089,0.1091,0.1061,0.1102,0.1045,0.1161,0.1163,0.1164,0.1165,0,0.0579,0.0588,0.0598,0.0637,0.0649,0.0668,0.0747,0.0776,0.0848,0.0894,0.0948,0.098,0.1025,0.102,0.1077,0.1059,0.111,0.1121,0.1125,0.1079,0.1069,0.1127,0.1181,0.118,0.1179,0.1178,0.1177,0,0.0552,0.0568,0.0588,0.0588,0.0633,0.0679,0.0728,0.0802,0.0852,0.0944,0.1006,0.1041,0.1107,0.1126,0.1173,0.1147,0.1241,0.1199,0.1216,0.1215,0.12,0.1193,0.1268,0.1268,0.1268,0.1268,0.1267,0,0.0516,0.0524,0.0584,0.0581,0.0632,0.0682,0.0755,0.0814,0.0907,0.0961,0.1047,0.109,0.1147,0.1209,0.121,0.1248,0.1283,0.123,0.124,0.1215,0.1209,0.1208,0.12,0.1272,0.1271,0.127,0.1269,0,0.0471,0.0501,0.0519,0.0584,0.0616,0.0662,0.0776,0.0822,0.0934,0.1014,0.1062,0.1168,0.1242,0.1303,0.1355,0.1321,0.1333,0.136,0.1367,0.1373,0.1279,0.1271,0.135,0.1349,0.1349,0.1349,0.1348,0,0.0443,0.0447,0.0518,0.0546,0.0583,0.0661,0.0716,0.0827,0.0876,0.1025,0.1054,0.1201,0.126,0.1327,0.1355,0.1402,0.1398,0.1415,0.1298,0.1285,0.1287,0.1279,0.1272,0.1348,0.1348,0.1348,0.1348,0,0.0384,0.0424,0.0448,0.0505,0.0565,0.0624,0.0714,0.0749,0.0872,0.0975,0.1066,0.1138,0.1249,0.1285,0.1398,0.1391,0.1376,0.141,0.1409,0.1299,0.1284,0.1284,0.1277,0.1346,0.1346,0.1347,0.1347,0,0.0354,0.0366,0.0412,0.0463,0.0524,0.0577,0.0632,0.0717,0.0793,0.0965,0.0966,0.1116,0.1218,0.1283,0.1321,0.1379,0.1336,0.128,0.1285,0.1287,0.1212,0.1179,0.1229,0,0,0,0,0,0.0318,0.0336,0.0368,0.0424,0.0478,0.0523,0.0619,0.0676,0.0785,0.0844,0.0922,0.1015,0.1126,0.1174,0.1222,0.1262,0.1321,0.1307,0.1252,0.1339,0.1341,0.1256,0,0,0,0,0,0,0.0298,0.0326,0.0346,0.0373,0.0407,0.047,0.0532,0.0611,0.0658,0.0779,0.0853,0.0955,0.1079,0.1107,0.1202,0.1223,0.1171,0.1395,0.1393,0.1338,0.134,0.1341,0.1254,0,0,0,0,0]},{"header":{"parameterUnit":"m.s-1","parameterCategory":2,"la1":30.2991,"la2":30.254,"lo1":-89.0895,"lo2":-89.0444,"dy":0.0017,"dx":0.0017,"nx":28,"ny":28,"refTime":"2026-02-01T03:00:00:Z","depth":"4","parameterNumber":3,"parameterNumberName":"V-component_of_CURRENTS"},"data":[0,0,0,0,0,0,0,0,0,0,0,0,0,0,0,0,0,0,0,0,0,0,0,0,0,0,0,0,0,0,0,0,0,0,0,0,0,0,0,0,0,0,0,0,0,0,0,0,0,0,0,0,0,0,0,0,0,0,-0.0036,-0.0036,0,-0.0028,-0.0028,-0.0028,-0.0058,-0.0059,-0.006,-0.0061,-0.0071,-0.0071,-0.007,0,0,0,0,0,0,0,0,0,0,0,0,0,-0.0041,-0.0042,-0.0036,-0.0036,-0.0036,-0.0028,-0.0028,-0.0028,-0.0058,-0.0059,-0.006,-0.0061,-0.0071,-0.0071,-0.007,0,0,0,0,0,0,0,0,0,0,0,0,0,-0.0038,-0.0042,-0.0036,-0.0049,-0.005,-0.0028,-0.0028,-0.0028,-0.0058,-0.0059,-0.006,-0.0061,-0.0072,-0.0071,-0.007,-0.0043,0,0,-0.0068,-0.0068,0,0,0,0,0,0,0,0,-0.0038,-0.0038,-0.0047,-0.0048,-0.0049,-0.0044,-0.0034,-0.0033,-0.0058,-0.0056,-0.0061,-0.0062,-0.0062,-0.0062,-0.006,-0.0043,-0.0044,-0.0068,-0.0068,-0.0067,-0.0067,0,0,0,0,0,0,0,-0.0039,-0.0038,-0.0034,-0.0047,-0.0048,-0.0042,-0.0044,-0.0034,-0.0054,-0.0056,-0.0058,-0.0055,-0.0063,-0.006,-0.006,-0.0044,-0.0068,-0.0068,-0.0067,-0.0067,-0.0035,-0.0035,0,0,0,0,0,0,-0.0037,-0.0039,-0.0034,-0.0034,-0.0045,-0.0041,-0.0043,-0.0046,-0.0054,-0.0056,-0.0054,-0.0056,-0.0061,-0.0061,-0.0061,-0.0059,-0.0068,-0.0067,-0.0066,-0.0036,-0.0035,-0.0035,0,0,0,0,0,0,-0.0038,-0.0037,-0.0035,-0.0035,-0.0034,-0.004,-0.0043,-0.0045,-0.0046,-0.0051,-0.0054,-0.0054,-0.0062,-0.0062,-0.0038,-0.0058,-0.0067,-0.0066,-0.0036,-0.0036,-0.0035,-0.0035,0,0,0,0,0,0,-0.0038,-0.0038,-0.0038,-0.0035,-0.0034,-0.0013,-0.0042,-0.0044,-0.0041,-0.0045,-0.0052,-0.0054,-0.0063,-0.0039,-0.0037,-0.0058,-0.0065,-0.0037,-0.0036,-0.0035,-0.0036,-0.0034,-0.0033,0,0,0,0,0,-0.0038,-0.0022,-0.0038,-0.0037,-0.0034,-0.0011,-0.001,-0.0019,-0.004,-0.0028,-0.003,-0.0054,-0.0034,-0.0036,-0.0035,-0.0056,-0.0037,-0.0036,-0.0035,-0.0036,-0.0035,-0.0033,0,0,0,0,0,0,-0.0019,-0.0024,-0.0041,-0.0028,-0.002,-0.0016,-0.0004,-0.0016,-0.0008,-0.0014,-0.0029,-0.003,-0.0025,-0.0027,-0.0029,-0.0044,-0.0047,-0.0046,-0.0048,-0.0047,-0.0046,-0.0067,-0.0065,0,0,0,0,0,-0.0016,-0.0012,-0.0013,-0.0002,0.0002,-0.0005,0.0002,-0.0004,0.0003,0.0003,-0.0003,-0.0011,-0.0018,-0.0019,-0.0017,-0.0009,-0.0034,-0.0027,-0.0026,-0.0025,-0.004,-0.0077,-0.0082,-0.0032,-0.0032,-0.0032,0,0,-0.0005,-0.0008,-0.0005,0.0002,0.0003,0.0015,-0.0004,0.0013,0.0015,0.0003,0.001,0.0001,-0.0011,-0.0011,-0.0011,-0.0016,-0.0049,-0.0024,-0.0023,-0.0039,-0.0077,-0.0082,-0.0087,-0.0031,-0.0031,-0.0031,0,0,0.0028,0.0016,0.003,0.0036,0.0042,0.0039,0.0043,0.0047,0.004,0.0061,0.0032,0.0015,0.0031,-0.0004,-0.0016,-0.0004,-0.0039,-0.0005,-0.0022,-0.0058,-0.0063,-0.0068,-0.0099,-0.0107,-0.0009,-0.0009,-0.0009,0,0.0042,0.0046,0.0043,0.0058,0.0058,0.0047,0.0061,0.0061,0.0071,0.0056,0.0069,0.0035,0.0026,-0.0018,-0.0019,-0.0008,-0.0026,-0.0028,-0.0059,-0.0064,-0.0069,-0.0101,-0.0109,-0.0009,-0.0009,-0.0009,-0.0009,0,0.008,0.008,0.0094,0.0094,0.0102,0.0116,0.011,0.011,0.01,0.0084,0.0058,0.0048,0.0019,0.0005,-0.0,-0.0056,-0.0056,-0.0051,-0.0068,-0.0075,-0.0107,-0.0116,-0.0009,-0.0009,-0.0009,-0.0009,0,0,0.0117,0.0117,0.0119,0.0113,0.0115,0.0127,0.0126,0.011,0.0091,0.0089,0.0055,0.0028,0.0002,-0.0014,-0.0041,-0.0083,-0.0132,-0.0083,-0.0085,-0.0124,-0.0209,-0.0207,-0.0216,-0.0131,-0.0132,-0.0134,-0.0215,0,0.0141,0.0159,0.0155,0.0167,0.017,0.0153,0.0152,0.0135,0.0116,0.0088,0.0038,0.0016,0.0001,-0.0013,-0.0061,-0.0116,-0.0157,-0.0111,-0.0188,-0.0191,-0.0196,-0.0227,-0.0139,-0.0222,-0.0224,-0.0225,-0.0226,0,0.0172,0.0174,0.0189,0.0176,0.0178,0.0191,0.0162,0.0163,0.0112,0.0097,0.0047,0.0016,-0.0059,-0.0051,-0.0164,-0.0131,-0.017,-0.0211,-0.0215,-0.0224,-0.0206,-0.0213,-0.0243,-0.0242,-0.0241,-0.0239,-0.0238,0,0.0181,0.0193,0.0196,0.0197,0.0193,0.0197,0.0199,0.0165,0.0149,0.0103,0.0078,-0.0002,-0.0045,-0.0109,-0.0192,-0.0174,-0.0314,-0.0293,-0.0332,-0.0332,-0.0309,-0.0304,-0.0367,-0.0367,-0.0367,-0.0367,-0.0366,0,0.0191,0.0194,0.0207,0.0209,0.0221,0.022,0.022,0.0205,0.017,0.0131,0.0089,0.0029,-0.0062,-0.0151,-0.0206,-0.0309,-0.0321,-0.0354,-0.0361,-0.0304,-0.0297,-0.0316,-0.0309,-0.037,-0.0369,-0.0368,-0.0368,0,0.0188,0.0195,0.0204,0.0214,0.0226,0.024,0.025,0.0233,0.0212,0.0159,0.0147,0.0036,-0.0074,-0.0167,-0.0292,-0.0333,-0.0418,-0.0444,-0.0389,-0.0388,-0.0406,-0.0398,-0.0496,-0.0497,-0.0497,-0.0498,-0.0498,0,0.0175,0.0182,0.0214,0.0225,0.0236,0.026,0.0265,0.0261,0.0237,0.015,0.011,-0.0003,-0.008,-0.0248,-0.0347,-0.0453,-0.0458,-0.0496,-0.0447,-0.0426,-0.0423,-0.0414,-0.0405,-0.0499,-0.0499,-0.05,-0.05,0,0.0143,0.0167,0.0174,0.0209,0.023,0.0248,0.0258,0.0244,0.0211,0.019,0.0091,-0.0001,-0.0141,-0.0259,-0.0346,-0.0423,-0.0469,-0.0503,-0.0501,-0.0455,-0.0432,-0.0426,-0.0416,-0.0502,-0.0502,-0.0502,-0.0501,0,0.0114,0.0122,0.0142,0.0185,0.0199,0.0211,0.0233,0.0209,0.0197,0.0126,0.008,-0.0044,-0.0121,-0.0249,-0.0339,-0.0406,-0.041,-0.0409,-0.0412,-0.0411,-0.0357,-0.0313,-0.0371,0,0,0,0,0,0.0077,0.0092,0.0111,0.0148,0.0164,0.0194,0.0197,0.021,0.0187,0.0136,0.0122,0.001,-0.0137,-0.0222,-0.0284,-0.0366,-0.044,-0.0444,-0.0444,-0.0515,-0.0512,-0.0463,0,0,0,0,0,0,0.0044,0.0057,0.0094,0.0106,0.0136,0.0154,0.0167,0.0166,0.0148,0.0121,0.0051,0.0016,-0.0123,-0.0079,-0.0274,-0.0304,-0.031,-0.0511,-0.0512,-0.0516,-0.0514,-0.0512,-0.046,0,0,0,0,0]}]]